Home > Weather > Pretoria > Past weeks

Flag for South Africa Past Weather in Pretoria, South Africa — Yesterday and Last 2 Weeks

Now
68 °F

Mild.


Feels Like: 68 °F
Forecast: 39 / 81 °F
Wind: 5 mph from North

Location: Waterkloof Lmb

Current Time: Aug 25, 2016 at 6:58:12 PM

Latest Report: Aug 25, 2016 at 6:00 PM


Visibility: N/A

Pressure: 30.36 "Hg (25.98 "Hg at 1338m altitude)

Humidity: 23%

Dew Point: 28 °F

Location of PretoriaLocation

Past Weather in Pretoria — Graph

°F

Pretoria Temperature Yesterday

Maximum temperature yesterday: 75 °F (at 3:00 PM)
Minimum temperature yesterday: 39 °F (at 6:00 AM)
Average temperature yesterday: 57 °F

High & Low Weather Summary for the Past Weeks

 TemperatureHumidityPressure
High77 °F (Aug 15, 2:00 PM)82% (Aug 17, 5:00 AM)30.57 "Hg (Aug 17, 5:00 AM)
Low39 °F (Aug 11, 6:00 AM)5% (Aug 10, 5:00 PM)30.09 "Hg (Aug 20, 4:00 PM)
Average60 °F36%30.33 "Hg
* Reported Aug 10 5:00 PM — Aug 25 5:00 PM, Pretoria, Weather by CustomWeather, © 2016

Note: Actual official high and low records may vary slightly from our data, if they occured in-between our weather recording intervals... More about our weather records

Advertising

Pretoria Weather History for the Previous 24 Hours

Scroll right to see more
 ConditionsComfort  
Time TempWeatherWind HumidityBarometerVisibility
5:00 PM
Thu, Aug 25
75 °FMild.8 mph16%30.33 "HgN/A
4:00 PM77 °FPleasantly warm.5 mph13%30.33 "HgN/A
3:00 PM77 °FPleasantly warm.6 mph12%30.33 "HgN/A
2:00 PM77 °FPleasantly warm.2 mph12%30.36 "HgN/A
1:00 PM75 °FMild.3 mph13%30.39 "HgN/A
12:00 PM73 °FMild.3 mph15%30.42 "HgN/A
11:00 AM70 °FMild.3 mph18%30.45 "HgN/A
10:00 AM64 °FMild.2 mph22%30.48 "HgN/A
9:00 AM61 °FRefreshingly cool.5 mph25%30.48 "HgN/A
8:00 AM55 °FRefreshingly cool.7 mph26%30.45 "HgN/A
7:00 AM46 °FCool.6 mph37%30.42 "HgN/A
6:00 AM43 °FQuite cool.2 mph46%30.42 "HgN/A
5:00 AM45 °FQuite cool.3 mph46%30.39 "HgN/A
4:00 AM48 °FCool.2 mph37%30.39 "HgN/A
3:00 AM48 °FCool.2 mph40%30.39 "HgN/A
2:00 AM50 °FCool.2 mph40%30.39 "HgN/A
1:00 AM50 °FCool.1 mph50%30.42 "HgN/A
12:00 AM50 °FCool.No wind54%30.42 "HgN/A
11:00 PM
Wed, Aug 24
52 °FCool.1 mph50%30.42 "HgN/A
10:00 PM59 °FRefreshingly cool.No wind39%30.45 "HgN/A
9:00 PM59 °FRefreshingly cool.No wind36%30.45 "HgN/A
8:00 PM63 °FMild.2 mph32%30.42 "HgN/A
7:00 PM63 °FMild.5 mph32%30.42 "HgN/A
6:00 PM68 °FMild.No wind17%30.39 "HgN/A
Weather by CustomWeather, © 2016

See weather overviewHow to use our weather pages